Hereford, TX

5:35 PM CST on February 27, 2017 (GMT -0600)
Hereford Municipal

Weather History for KHRX - January, 2014

Change the Weather History Date:

Thursday, January 23, 2014

  Actual Average (KAMA) Record (KAMA)
Temperature  
Mean Temperature 20 °F -  
Max Temperature 34 °F 50 °F 77 °F (1972)
Min Temperature 6 °F 24 °F -4 °F (1966)
Degree Days  
Heating Degree Days 45    
Moisture  
Dew Point 5 °F    
Average Humidity 58    
Maximum Humidity 79    
Minimum Humidity 25    
Precipitation  
Precipitation 0.00 in - - ()
Sea Level Pressure  
Sea Level Pressure 30.48 in    
Wind  
Wind Speed 14 mph (NNE)    
Max Wind Speed 23 mph    
Max Gust Speed 28 mph    
Visibility 10 miles    
Events      
Averages and records for this station are not official NWS values.
T = Trace of Precipitation, MM = Missing Value Source: NWS Daily Summary

Daily Weather History Graph

Daily Weather History Graph

Search for Another Location

Airport or City:

Trip Planner

Search our weather history database for the weather conditions in past years. The results will help you decide how hot, cold, wet, or windy it might be!

Date:

Astronomy

Jan. 23, 2014 Rise Set
Actual Time 7:53 AM CST 6:09 PM CST
Civil Twilight 7:26 AM CST 6:36 PM CST
Nautical Twilight 6:55 AM CST 7:07 PM CST
Astronomical Twilight 6:25 AM CST 7:37 PM CST
Moon 12:25 AM CST (1/23) 11:48 AM CST (1/23)
Length of Visible Light 11h 09m
Length of Day
10h 15m
Waning Gibbous, 55% of the Moon is Illuminated
Jan 23
Waning Gibbous
Jan 23
Last Quarter
Jan 30
New
Feb 6
First Quarter
Feb 14
Full

Hourly Weather History & Observations

Time (CST) Temp. Windchill Dew Point Humidity Pressure Visibility Wind Dir Wind Speed Gust Speed Precip Events Conditions
12:15 AM 34.7 °F 25.5 °F 20.8 °F 57% 30.20 in 10.0 mi East 13.8 mph - N/A   Overcast
12:35 AM 33.8 °F 24.3 °F 21.0 °F 60% 30.19 in 10.0 mi East 13.8 mph 18.4 mph N/A   Overcast
12:55 AM 32.9 °F 23.7 °F 20.8 °F 61% 30.20 in 10.0 mi East 12.7 mph - N/A   Mostly Cloudy
1:15 AM 32.0 °F 23.0 °F 20.7 °F 63% 30.19 in 10.0 mi East 11.5 mph - N/A   Scattered Clouds
1:35 AM 30.7 °F 22.0 °F 20.3 °F 65% 30.19 in 10.0 mi ENE 10.4 mph - N/A   Clear
1:55 AM 30.2 °F 21.3 °F 20.3 °F 67% 30.20 in 10.0 mi ENE 10.4 mph - N/A   Clear
2:15 AM 29.3 °F 20.8 °F 19.9 °F 68% 30.21 in 10.0 mi ENE 9.2 mph - N/A   Clear
2:35 AM 29.1 °F 18.9 °F 19.9 °F 69% 30.22 in 10.0 mi ENE 12.7 mph - N/A   Clear
2:55 AM 28.4 °F 18.5 °F 19.4 °F 69% 30.23 in 10.0 mi ENE 11.5 mph - N/A   Clear
3:15 AM 27.5 °F 18.0 °F 18.9 °F 70% 30.26 in 10.0 mi ENE 10.4 mph - N/A   Scattered Clouds
3:35 AM 28.9 °F 18.2 °F 19.2 °F 67% 30.27 in 10.0 mi ENE 13.8 mph 18.4 mph N/A   Mostly Cloudy
3:55 AM 29.8 °F 18.4 °F 18.9 °F 64% 30.27 in 10.0 mi ENE 16.1 mph - N/A   Overcast
4:15 AM 29.8 °F 18.4 °F 18.3 °F 62% 30.27 in 10.0 mi ENE 16.1 mph 25.3 mph N/A   Overcast
4:35 AM 29.7 °F 17.4 °F 17.6 °F 61% 30.29 in 10.0 mi ENE 18.4 mph 23.0 mph N/A   Overcast
4:55 AM 28.9 °F 16.1 °F 16.7 °F 60% 30.29 in 10.0 mi ENE 19.6 mph 27.6 mph N/A   Overcast
5:15 AM 27.5 °F 14.2 °F 17.2 °F 65% 30.32 in 10.0 mi ENE 19.6 mph 26.5 mph N/A   Overcast
5:35 AM 26.4 °F 12.5 °F 17.1 °F 68% 30.33 in 10.0 mi NE 20.7 mph - N/A   Overcast
5:55 AM 23.9 °F 8.8 °F 15.8 °F 71% 30.34 in 10.0 mi NE 21.9 mph 26.5 mph N/A   Overcast
6:15 AM 22.3 °F 7.4 °F 13.6 °F 69% 30.36 in 10.0 mi ENE 19.6 mph - N/A   Overcast
6:35 AM 21.2 °F 6.0 °F 12.6 °F 69% 30.37 in 10.0 mi ENE 19.6 mph 25.3 mph N/A   Overcast
6:55 AM 20.8 °F 6.8 °F 11.8 °F 68% 30.40 in 10.0 mi NE 16.1 mph - N/A   Overcast
7:15 AM 21.0 °F 6.2 °F 10.9 °F 65% 30.41 in 10.0 mi NE 18.4 mph 24.2 mph N/A   Overcast
7:35 AM 21.0 °F 7.6 °F 10.2 °F 63% 30.42 in 10.0 mi NE 15.0 mph 21.9 mph N/A   Overcast
7:55 AM 21.0 °F 5.7 °F 10.0 °F 63% 30.42 in 10.0 mi NE 19.6 mph 24.2 mph N/A   Overcast
8:15 AM 19.4 °F 4.1 °F 7.3 °F 60% 30.44 in 10.0 mi NNE 18.4 mph 25.3 mph N/A   Overcast
8:35 AM 18.5 °F 2.4 °F 5.9 °F 58% 30.46 in 10.0 mi NNE 19.6 mph - N/A   Overcast
8:55 AM 17.6 °F 0.9 °F 3.9 °F 55% 30.48 in 10.0 mi NNE 20.7 mph 25.3 mph N/A   Overcast
9:15 AM 16.7 °F -1.1 °F -3.1 °F 42% 30.49 in 10.0 mi NNE 23.0 mph 27.6 mph N/A   Overcast
9:35 AM 16.2 °F -1.0 °F -3.6 °F 42% 30.51 in 10.0 mi NNE 20.7 mph 26.5 mph N/A   Overcast
9:55 AM 16.0 °F 1.7 °F -8.5 °F 33% 30.53 in 10.0 mi NE 13.8 mph 23.0 mph N/A   Overcast
10:15 AM 16.3 °F 2.1 °F -3.8 °F 41% 30.55 in 10.0 mi NNE 13.8 mph - N/A   Overcast
10:35 AM 16.3 °F -0.4 °F -3.8 °F 41% 30.56 in 10.0 mi NE 19.6 mph 23.0 mph N/A   Overcast
10:55 AM 16.3 °F -0.8 °F -11.4 °F 29% 30.58 in 10.0 mi NNE 20.7 mph - N/A   Overcast
11:15 AM 16.5 °F 0.8 °F -9.6 °F 31% 30.59 in 10.0 mi NNE 17.3 mph 24.2 mph N/A   Overcast
11:35 AM 16.5 °F 0.3 °F -6.7 °F 35% 30.59 in 10.0 mi NNE 18.4 mph 24.2 mph N/A   Overcast
11:55 AM 16.0 °F -1.3 °F -8.3 °F 34% 30.60 in 10.0 mi NNE 20.7 mph 25.3 mph N/A   Overcast
12:15 PM 16.2 °F -1.0 °F -10.7 °F 30% 30.60 in 10.0 mi NNE 20.7 mph 27.6 mph N/A   Overcast
12:35 PM 16.2 °F -0.6 °F -12.3 °F 28% 30.60 in 10.0 mi NNE 19.6 mph 25.3 mph N/A   Overcast
12:55 PM 16.7 °F 0.1 °F -11.9 °F 27% 30.59 in 10.0 mi NNE 19.6 mph 26.5 mph N/A   Overcast
1:15 PM 16.7 °F 2.0 °F -14.1 °F 25% 30.59 in 10.0 mi NNE 15.0 mph - N/A   Overcast
1:35 PM 16.3 °F -0.4 °F -11.6 °F 28% 30.59 in 10.0 mi North 19.6 mph 24.2 mph N/A   Overcast
1:55 PM 16.0 °F 0.1 °F -11.7 °F 29% 30.59 in 10.0 mi North 17.3 mph 21.9 mph N/A   Overcast
2:15 PM 15.8 °F 0.3 °F -9.4 °F 32% 30.59 in 10.0 mi NNE 16.1 mph 21.9 mph N/A   Overcast
2:35 PM 15.6 °F 0.6 °F -2.0 °F 46% 30.59 in 10.0 mi North 15.0 mph - N/A   Overcast
2:55 PM 14.9 °F -0.3 °F -0.6 °F 50% 30.59 in 10.0 mi North 15.0 mph - N/A   Overcast
3:15 PM 14.7 °F -0.5 °F 1.9 °F 57% 30.59 in 10.0 mi NNE 15.0 mph 19.6 mph N/A   Overcast
3:35 PM 15.8 °F 0.3 °F 3.2 °F 58% 30.60 in 10.0 mi NNE 16.1 mph 19.6 mph N/A   Overcast
3:55 PM 14.9 °F -0.3 °F 3.0 °F 59% 30.60 in 10.0 mi NNE 15.0 mph - N/A   Overcast
4:15 PM 14.9 °F 0.3 °F 3.6 °F 61% 30.60 in 10.0 mi North 13.8 mph - N/A   Overcast
4:35 PM 14.9 °F 0.3 °F 3.9 °F 62% 30.61 in 10.0 mi NNE 13.8 mph 19.6 mph N/A   Overcast
4:55 PM 14.7 °F -0.5 °F 5.0 °F 65% 30.61 in 10.0 mi North 15.0 mph - N/A   Overcast
5:15 PM 14.5 °F -0.2 °F 4.1 °F 63% 30.61 in 10.0 mi NNE 13.8 mph - N/A   Overcast
5:35 PM 14.4 °F -0.4 °F 5.0 °F 66% 30.61 in 10.0 mi North 13.8 mph - N/A   Overcast
5:55 PM 14.0 °F -1.4 °F 5.2 °F 68% 30.61 in 10.0 mi North 15.0 mph - N/A   Overcast
6:15 PM 13.5 °F -0.2 °F 3.7 °F 65% 30.61 in 10.0 mi North 11.5 mph - N/A   Overcast
6:35 PM 13.5 °F -0.2 °F 4.3 °F 67% 30.62 in 10.0 mi North 11.5 mph - N/A   Overcast
6:55 PM 13.6 °F 0.0 °F 5.0 °F 68% 30.62 in 10.0 mi North 11.5 mph - N/A   Overcast
7:15 PM 13.5 °F 1.3 °F 4.1 °F 66% 30.63 in 10.0 mi North 9.2 mph - N/A   Overcast
7:35 PM 12.7 °F 0.4 °F 4.1 °F 68% 30.63 in 10.0 mi North 9.2 mph - N/A   Overcast
7:55 PM 11.8 °F 1.3 °F 3.7 °F 70% 30.64 in 10.0 mi North 6.9 mph - N/A   Scattered Clouds
8:35 PM 9.9 °F 1.6 °F 2.3 °F 71% 30.63 in 10.0 mi NNW 4.6 mph - N/A   Scattered Clouds
8:55 PM 9.5 °F 1.2 °F 1.9 °F 71% 30.63 in 10.0 mi NNW 4.6 mph - N/A   Clear
9:15 PM 8.6 °F 2.0 °F 0.9 °F 71% 30.62 in 10.0 mi WNW 3.5 mph - N/A   Clear
9:55 PM 6.8 °F -4.8 °F -0.4 °F 72% 30.62 in 10.0 mi WNW 6.9 mph - N/A   Clear
10:15 PM 6.8 °F -5.9 °F 0.1 °F 74% 30.62 in 10.0 mi WNW 8.1 mph - N/A   Clear
10:35 PM 6.3 °F -5.4 °F -0.4 °F 74% 30.62 in 10.0 mi WNW 6.9 mph - N/A   Clear
10:55 PM 6.1 °F -4.3 °F -0.2 °F 75% 30.61 in 10.0 mi West 5.8 mph - N/A   Clear
11:15 PM 6.3 °F -2.6 °F 0.9 °F 78% 30.61 in 10.0 mi WSW 4.6 mph - N/A   Clear
11:35 PM 6.6 °F -3.7 °F 0.9 °F 77% 30.61 in 10.0 mi WSW 5.8 mph - N/A   Clear
11:55 PM 7.2 °F -4.3 °F 1.9 °F 79% 30.61 in 10.0 mi WSW 6.9 mph - N/A   Clear